Find Starlink 11537

NORAD ID: 62911 Int'l Des: 2025-027 Owner: SPXS Country: US Constellation: starlink operational
LEOCIRCULAR

現在のビュー

3D地球を読み込み中...

About Starlink 11537

Starlink 11537 (NORAD 62911) is a starlink constellation satellite (v2 mini d2c) launched Feb 8, 2025 by SPXS of US. It operates in LEO, CIRCULAR orbit with a mass of 960.00 kg.

Starlink 11537について

説明を読み込み中...

次回通過

Passes for default location (London). Set your location on the main map for personalized predictions.

高度履歴

Loading altitude history...

軌道要素

1 62911U 25027E 26170.81652436 .00213127 00000-0 16168-2 0 9996
2 62911 43.0005 92.1119 0001808 256.0568 104.0098 15.70920161 79252
Epoch: Jun 19, 2026 • Age: 6 hours

現在のステータス

高度 359.7 km
速度 7.70 km/s
衛星直下点 40.44°N, 142.49°W
打ち上げ日 Feb 8, 2025
運用期間 1.3 years
タイプ internet

技術仕様

分類 Payload
質量 960.00 kg
乾燥質量 910.00 kg
総質量 960.00 kg
長さ 0.30 m
直径 4.10 m
スパン 29.00 m
形状 Box + pan
製造者 SPXS
バスタイプ Starlink V2MD
フェーズステータス In Orbit
所有者/国 SPXS/US

Most Searched